This demonstration page uses our WeatherBlox Daily Observations layout. Learn more.

Left ArrowRight Arrow

Hourly Observations for March 5, 2018

Temp ( °F °C ) Dew Point ( °F °C ) Humidity (%) Winds ( mph kmh ) Pressure ( in mb ) Visibility ( mi km ) Precip ( " mm )
12:53 am 00:53 Cloudy 45 7.2 40 4.4 83 83 NW 23 37 29.54 1001 10 16 0.00 0.00
1:02 am 01:02 Cloudy with Light Rain 41 5 37 2.8 86 86 NNW 28 44 29.62 1003 10 16 0.00 0.03
1:53 am 01:53 Cloudy 37 2.8 34 1.1 89 89 NNW 29 46 29.59 1002 10 16 0.01 0.25
2:53 am 02:53 Windy with Snow Likely 35 1.7 32 0 89 89 NW 35 56 29.62 1003 4 6 0.00 0.03
3:13 am 03:13 Windy with Snow Likely 35 1.7 32 0 89 89 NNW 28 44 29.71 1006 3 4 0.00 0.03
3:24 am 03:24 Windy with Snow Likely 34 1 32 0 93 93 NNW 30 48 29.71 1006 3 5 0.00 0.00
3:53 am 03:53 Windy with Snow Likely 34 1.1 31 -0.6 89 89 NNW 31 50 29.66 1005 3 5 0.00 0.03
4:17 am 04:17 Cloudy 34 1.1 30 -1.1 85 85 NW 30 48 29.77 1008 9 14 0.00 0.03
4:33 am 04:33 Cloudy 34 1.1 29 -1.7 82 82 NW 31 50 29.77 1008 10 16 0.00 0.03
4:53 am 04:53 Cloudy 34 1.1 28 -2.2 79 79 NW 31 50 29.69 1006 10 16 0.00 0.03
5:53 am 05:53 Cloudy 33 0.6 26 -3.3 75 75 NW 29 46 29.73 1007 10 16 0.00 0.00
6:53 am 06:53 Windy with Snow Likely 32 0 27 -2.8 82 82 NW 30 48 29.76 1008 9 14 0.00 0.03
7:53 am 07:53 Cloudy 32 0 25 -3.9 75 75 NW 31 50 29.79 1009 10 16 0.00 0.03
8:53 am 08:53 Cloudy 33 0.6 22 -5.6 64 64 NW 30 48 29.81 1010 10 16 0.00 0.00
9:30 am 09:30 Mostly Cloudy 34 1 25 -4 70 70 WNW 28 44 29.85 1011 10 16 0.00 0.00
9:37 am 09:37 Mostly Cloudy 35 1.7 25 -3.9 67 67 NW 29 46 29.85 1011 10 16 0.00 0.00
9:53 am 09:53 Partly Cloudy 36 2.2 25 -3.9 64 64 WNW 28 44 29.82 1010 10 16 0.00 0.00
10:06 am 10:06 Mostly Cloudy 36 2 25 -4 65 65 WNW 28 44 29.85 1011 10 16 0.00 0.00
10:43 am 10:43 Mostly Cloudy 39 4 21 -6 48 48 WNW 28 44 29.88 1012 10 16 0.00 0.00
10:53 am 10:53 Partly Cloudy 39 3.9 21 -6.1 48 48 WNW 25 41 29.83 1010 10 16 0.00 0.00
11:53 am 11:53 Sunny 40 4.4 16 -8.9 38 38 WNW 31 50 29.84 1011 10 16 0.00 0.00
12:53 pm 12:53 Partly Cloudy 42 5.6 15 -9.4 33 33 WNW 30 48 29.84 1011 10 16 0.00 0.00
1:53 pm 13:53 Mostly Cloudy 42 5.6 15 -9.4 33 33 WNW 36 57 29.83 1010 10 16 0.00 0.00
2:53 pm 14:53 Mostly Cloudy 44 6.7 14 -10 30 30 WNW 30 48 29.82 1010 10 16 0.00 0.00
3:53 pm 15:53 Cloudy 46 7.8 15 -9.4 29 29 NW 30 48 29.81 1010 10 16 0.00 0.00
4:53 pm 16:53 Mostly Cloudy 44 6.7 15 -9.4 31 31 NW 31 50 29.84 1011 10 16 0.00 0.00
5:53 pm 17:53 Cloudy 44 6.7 14 -10 30 30 WNW 37 59 29.85 1011 10 16 0.00 0.00
6:53 pm 18:53 Clear 41 5 14 -10 33 33 WNW 25 41 29.87 1012 10 16 0.00 0.00
7:53 pm 19:53 Clear 39 3.9 15 -9.4 38 38 WNW 29 46 29.88 1012 10 16 0.00 0.00
8:53 pm 20:53 Clear 35 1.7 19 -7.2 52 52 WNW 21 33 29.89 1012 10 16 0.00 0.00
9:53 pm 21:53 Clear 34 1.1 20 -6.7 56 56 WNW 18 30 29.89 1012 10 16 0.00 0.00
10:53 pm 22:53 Mostly Cloudy 34 1.1 20 -6.7 56 56 WNW 17 28 29.87 1012 10 16 0.00 0.00
11:53 pm 23:53 Mostly Cloudy 34 1.1 20 -6.7 56 56 WNW 26 43 29.86 1011 10 16 0.00 0.00

Powered by AerisWeather